Voltar ao catálogo

STARLINK-35767

AtivoComunicaçõesVLEO
NORAD 67058·PAYLOAD·🇺🇸 United States

Lançado Dec 11, 2025 de Cape Canaveral Space Force Station

Loading…

Próximas Passagens (próximas 24 horas)

TLE

AtualizadoSource: CelesTrak SupGP

Época: Sep 15, 2026, 03:16 UTC

1 67058C 25294AE  26258.13659722 -.00026149  00000+0 -94704-3 0  2584
2 67058  43.0016  48.4514 0001757 267.5553 301.3256 15.27594064    15

Acompanhe STARLINK-35767 em tempo real com AllMySat

Download on the App Store